TimeEST,TemperatureF,Dew PointF,Humidity,Sea Level PressureIn,VisibilityMPH,Wind Direction,Wind SpeedMPH,Gust SpeedMPH,PrecipitationIn,Events,Conditions,WindDirDegrees,DateUTC
12:52 AM,28.0,16.0,61,30.02,10.0,NNW,3.5,-,N/A,,Clear,330,2013-03-04 05:52:00
1:52 AM,28.0,17.1,63,30.04,10.0,NNW,4.6,-,N/A,,Clear,330,2013-03-04 06:52:00
2:52 AM,27.0,16.0,63,30.05,10.0,Calm,Calm,-,N/A,,Clear,0,2013-03-04 07:52:00
3:52 AM,27.0,15.1,61,30.05,10.0,Calm,Calm,-,N/A,,Clear,0,2013-03-04 08:52:00
4:52 AM,24.1,16.0,71,30.08,10.0,Calm,Calm,-,N/A,,Clear,0,2013-03-04 09:52:00
5:52 AM,24.8,15.8,69,30.08,10.0,West,3.5,-,N/A,,Clear,270,2013-03-04 10:52:00
6:52 AM,24.1,15.1,69,30.12,10.0,West,4.6,-,N/A,,Clear,270,2013-03-04 11:52:00
7:52 AM,30.0,18.0,61,30.15,10.0,West,4.6,-,N/A,,Clear,280,2013-03-04 12:52:00
8:52 AM,36.0,17.1,46,30.15,10.0,NW,6.9,-,N/A,,Partly Cloudy,310,2013-03-04 13:52:00
9:52 AM,39.0,15.1,38,30.16,10.0,WNW,8.1,-,N/A,,Partly Cloudy,300,2013-03-04 14:52:00
10:52 AM,41.0,14.0,33,30.15,10.0,NW,4.6,-,N/A,,Partly Cloudy,310,2013-03-04 15:52:00
11:52 AM,46.0,14.0,28,30.14,10.0,Variable,6.9,-,N/A,,Partly Cloudy,0,2013-03-04 16:52:00
12:52 PM,48.0,15.1,27,30.12,10.0,WNW,6.9,-,N/A,,Partly Cloudy,290,2013-03-04 17:52:00
1:52 PM,50.0,14.0,24,30.08,10.0,NW,8.1,-,N/A,,Partly Cloudy,310,2013-03-04 18:52:00
2:52 PM,53.1,14.0,21,30.07,10.0,Variable,6.9,-,N/A,,Partly Cloudy,0,2013-03-04 19:52:00
3:52 PM,54.0,12.0,19,30.06,10.0,WNW,8.1,-,N/A,,Partly Cloudy,290,2013-03-04 20:52:00
4:52 PM,54.0,10.0,17,30.05,10.0,WNW,5.8,-,N/A,,Partly Cloudy,290,2013-03-04 21:52:00
5:52 PM,51.1,17.1,26,30.06,10.0,SSW,5.8,-,N/A,,Scattered Clouds,210,2013-03-04 22:52:00
6:52 PM,46.9,19.0,33,30.07,10.0,South,4.6,-,N/A,,Scattered Clouds,170,2013-03-04 23:52:00
7:52 PM,44.1,18.0,35,30.07,10.0,South,4.6,-,N/A,,Scattered Clouds,180,2013-03-05 00:52:00
8:52 PM,43.0,21.9,43,30.08,10.0,SSW,5.8,-,N/A,,Scattered Clouds,200,2013-03-05 01:52:00
9:52 PM,43.0,21.0,42,30.08,10.0,SSE,3.5,-,N/A,,Mostly Cloudy,160,2013-03-05 02:52:00
10:52 PM,44.1,19.9,38,30.08,10.0,Calm,Calm,-,N/A,,Scattered Clouds,0,2013-03-05 03:52:00
11:52 PM,44.1,23.0,43,30.06,10.0,Calm,Calm,-,N/A,,Overcast,0,2013-03-05 04:52:00